When you browse on this site, cookies collect data to enhance your experience and personalize the content and advertising you see.
Visit our Privacy Policy to learn more. By continuing to use the site, you agree to this use of cookies and data.
  • En España
  • Lista de países
  • Para 7 días
  • Temperatura del agua
  • El tiempo en el mapa
  • Informadores
  • user-avatar
    Iniciar sesión

    Tiempo cada hora Tibissa

    Hoy, 5 Junio, Viernes

    Tiempo Temperatura Precipitaciones Viento Presión Humedad
    00:00 +20°C° 0.2 mm 3 mps 680 mmHg 57%
    01:00 +20°C° 0 mm 3 mps 680 mmHg 57%
    02:00 +19°C° 0.5 mm 3 mps 680 mmHg 60%
    03:00 +18°C° 0.5 mm 2 mps 679 mmHg 64%
    04:00 +17°C° 0.5 mm 2 mps 679 mmHg 67%
    05:00 +17°C° 0 mm 3 mps 679 mmHg 66%
    06:00 +18°C° 0 mm 3 mps 680 mmHg 65%
    07:00 +18°C° 0 mm 4 mps 680 mmHg 64%
    08:00 +19°C° 0 mm 6 mps 681 mmHg 56%
    09:00 +20°C° 0 mm 8 mps 681 mmHg 48%
    10:00 +21°C° 0 mm 11 mps 682 mmHg 40%
    11:00 +22°C° 0 mm 10 mps 682 mmHg 38%
    12:00 +23°C° 0 mm 10 mps 682 mmHg 36%
    13:00 +24°C° 0 mm 9 mps 683 mmHg 33%
    14:00 +24°C° 0 mm 9 mps 683 mmHg 33%
    15:00 +24°C° 0 mm 9 mps 683 mmHg 33%
    16:00 +24°C° 0 mm 9 mps 683 mmHg 33%
    17:00 +23°C° 0 mm 8 mps 683 mmHg 35%
    18:00 +22°C° 0 mm 7 mps 683 mmHg 37%
    19:00 +21°C° 0 mm 6 mps 684 mmHg 39%
    20:00 +20°C° 0 mm 5 mps 684 mmHg 43%
    21:00 +19°C° 0 mm 4 mps 684 mmHg 47%
    22:00 +18°C° 0 mm 2 mps 685 mmHg 50%
    23:00 +18°C° 0 mm 2 mps 684 mmHg 52%

    Mañana, 6 Junio, Sábado

    Tiempo Temperatura Precipitaciones Viento Presión Humedad
    00:00 +19°C° 0 mm 1 mps 684 mmHg 54%
    01:00 +18°C° 0 mm 1 mps 684 mmHg 56%
    02:00 +18°C° 0 mm 1 mps 684 mmHg 56%
    03:00 +18°C° 0 mm 1 mps 684 mmHg 56%
    04:00 +16°C° 0 mm 1 mps 684 mmHg 56%
    05:00 +18°C° 0 mm 1 mps 684 mmHg 53%
    06:00 +19°C° 0 mm 1 mps 684 mmHg 49%
    07:00 +19°C° 0 mm 1 mps 685 mmHg 46%
    08:00 +20°C° 0 mm 2 mps 685 mmHg 40%
    09:00 +21°C° 0 mm 2 mps 686 mmHg 35%
    10:00 +24°C° 0 mm 3 mps 686 mmHg 30%
    11:00 +25°C° 0 mm 3 mps 686 mmHg 28%
    12:00 +26°C° 0 mm 4 mps 686 mmHg 26%
    13:00 +28°C° 0 mm 4 mps 686 mmHg 23%
    14:00 +28°C° 0 mm 4 mps 686 mmHg 23%
    15:00 +29°C° 0 mm 4 mps 686 mmHg 22%
    16:00 +30°C° 0 mm 5 mps 685 mmHg 22%
    17:00 +29°C° 0 mm 4 mps 685 mmHg 23%
    18:00 +29°C° 0 mm 4 mps 685 mmHg 25%
    19:00 +28°C° 0 mm 3 mps 684 mmHg 26%
    20:00 +27°C° 0 mm 3 mps 685 mmHg 29%
    21:00 +27°C° 0 mm 2 mps 685 mmHg 32%
    22:00 +26°C° 0 mm 2 mps 685 mmHg 34%
    23:00 +25°C° 0 mm 2 mps 684 mmHg 34%

    Pasado mañana, 7 Junio, Domingo

    Tiempo Temperatura Precipitaciones Viento Presión Humedad
    00:00 +25°C° 0 mm 2 mps 684 mmHg 34%
    01:00 +25°C° 0 mm 2 mps 684 mmHg 33%
    02:00 +25°C° 0 mm 2 mps 683 mmHg 34%
    03:00 +24°C° 0 mm 2 mps 683 mmHg 35%
    04:00 +24°C° 0 mm 2 mps 683 mmHg 36%
    05:00 +24°C° 0 mm 3 mps 683 mmHg 35%
    06:00 +25°C° 0 mm 3 mps 683 mmHg 35%
    07:00 +25°C° 0 mm 3 mps 683 mmHg 35%
    08:00 +27°C° 0.2 mm 6 mps 683 mmHg 31%
    09:00 +28°C° 0.2 mm 8 mps 684 mmHg 28%
    10:00 +31°C° 0.2 mm 10 mps 684 mmHg 24%
    11:00 +32°C° 0.1 mm 10 mps 684 mmHg 23%
    12:00 +33°C° 0.1 mm 10 mps 684 mmHg 23%
    13:00 +34°C° 0.1 mm 11 mps 683 mmHg 22%
    14:00 +33°C° 0 mm 10 mps 683 mmHg 25%
    15:00 +32°C° 0 mm 9 mps 682 mmHg 29%
    16:00 +31°C° 0 mm 8 mps 682 mmHg 33%
    17:00 +28°C° 0 mm 7 mps 682 mmHg 40%
    18:00 +26°C° 0 mm 7 mps 682 mmHg 48%
    19:00 +23°C° 0 mm 6 mps 682 mmHg 56%
    20:00 +22°C° 0 mm 6 mps 682 mmHg 59%
    21:00 +21°C° 0 mm 6 mps 682 mmHg 61%
    22:00 +20°C° 0 mm 5 mps 683 mmHg 64%
    23:00 +19°C° 0 mm 4 mps 683 mmHg 62%

    8 Junio, Lunes

    Tiempo Temperatura Precipitaciones Viento Presión Humedad
    00:00 +19°C° 0 mm 3 mps 682 mmHg 61%
    01:00 +18°C° 0 mm 2 mps 682 mmHg 59%
    02:00 +18°C° 0 mm 2 mps 682 mmHg 59%
    03:00 +18°C° 0 mm 2 mps 682 mmHg 60%
    04:00 +19°C° 0 mm 1 mps 682 mmHg 60%
    05:00 +19°C° 0 mm 1 mps 682 mmHg 58%
    06:00 +20°C° 0 mm 1 mps 682 mmHg 55%
    07:00 +21°C° 0 mm 1 mps 682 mmHg 52%
    08:00 +22°C° 0 mm 1 mps 683 mmHg 48%
    09:00 +23°C° 0 mm 1 mps 683 mmHg 44%
    10:00 +25°C° 0 mm 1 mps 683 mmHg 40%
    11:00 +26°C° 0 mm 1 mps 683 mmHg 34%
    12:00 +28°C° 0 mm 2 mps 684 mmHg 29%
    13:00 +30°C° 0 mm 2 mps 684 mmHg 24%
    14:00 +30°C° 0 mm 4 mps 683 mmHg 23%
    15:00 +32°C° 0 mm 5 mps 683 mmHg 23%
    16:00 +32°C° 0 mm 7 mps 683 mmHg 23%
    17:00 +30°C° 0.1 mm 6 mps 683 mmHg 26%
    18:00 +29°C° 0.1 mm 5 mps 683 mmHg 29%
    19:00 +28°C° 0.1 mm 5 mps 683 mmHg 33%
    20:00 +26°C° 0.3 mm 5 mps 683 mmHg 42%
    21:00 +23°C° 0.3 mm 4 mps 683 mmHg 51%
    22:00 +21°C° 0.3 mm 4 mps 684 mmHg 61%
    23:00 +20°C° 0.4 mm 4 mps 683 mmHg 66%

    9 Junio, Martes

    Tiempo Temperatura Precipitaciones Viento Presión Humedad
    00:00 +19°C° 0.4 mm 3 mps 683 mmHg 71%
    01:00 +18°C° 0.4 mm 3 mps 683 mmHg 76%
    02:00 +18°C° 0 mm 2 mps 683 mmHg 76%
    03:00 +18°C° 0 mm 2 mps 682 mmHg 76%
    04:00 +19°C° 0 mm 1 mps 682 mmHg 77%
    05:00 +19°C° 0 mm 1 mps 682 mmHg 73%
    06:00 +20°C° 0 mm 1 mps 683 mmHg 70%
    07:00 +18°C° 0 mm 0 mps 683 mmHg 67%
    08:00 +22°C° 0 mm 1 mps 684 mmHg 59%
    09:00 +23°C° 0 mm 1 mps 684 mmHg 52%
    10:00 +25°C° 0 mm 2 mps 684 mmHg 44%
    11:00 +26°C° 0 mm 3 mps 684 mmHg 40%
    12:00 +27°C° 0 mm 4 mps 684 mmHg 37%
    13:00 +28°C° 0 mm 5 mps 685 mmHg 33%
    14:00 +28°C° 0 mm 5 mps 684 mmHg 34%
    15:00 +28°C° 0 mm 5 mps 684 mmHg 36%
    16:00 +27°C° 0 mm 4 mps 684 mmHg 37%
    17:00 +26°C° 0.3 mm 5 mps 684 mmHg 44%
    18:00 +25°C° 0.3 mm 5 mps 684 mmHg 52%
    19:00 +22°C° 0.3 mm 5 mps 684 mmHg 60%
    20:00 +21°C° 0.5 mm 5 mps 685 mmHg 67%
    21:00 +20°C° 0.5 mm 4 mps 685 mmHg 73%
    22:00 +18°C° 0.5 mm 4 mps 686 mmHg 80%
    23:00 +18°C° 0 mm 3 mps 686 mmHg 80%

    10 Junio, Miércoles

    Tiempo Temperatura Precipitaciones Viento Presión Humedad
    00:00 +18°C° 0 mm 3 mps 686 mmHg 80%
    01:00 +18°C° 0 mm 3 mps 686 mmHg 79%
    02:00 +17°C° 0 mm 2 mps 685 mmHg 81%
    03:00 +17°C° 0 mm 2 mps 685 mmHg 83%
    04:00 +18°C° 0 mm 1 mps 684 mmHg 85%
    05:00 +18°C° 0 mm 1 mps 685 mmHg 83%
    06:00 +18°C° 0 mm 1 mps 685 mmHg 81%
    07:00 +18°C° 0 mm 1 mps 685 mmHg 78%
    08:00 +20°C° 0 mm 1 mps 686 mmHg 69%
    09:00 +22°C° 0 mm 1 mps 686 mmHg 60%
    10:00 +23°C° 0 mm 2 mps 686 mmHg 50%
    11:00 +25°C° 0 mm 2 mps 686 mmHg 45%
    12:00 +26°C° 0 mm 3 mps 686 mmHg 40%
    13:00 +28°C° 0 mm 4 mps 686 mmHg 35%
    14:00 +27°C° 0.1 mm 3 mps 686 mmHg 38%
    15:00 +27°C° 0.1 mm 2 mps 686 mmHg 41%
    16:00 +26°C° 0.1 mm 2 mps 685 mmHg 44%
    17:00 +26°C° 0.1 mm 2 mps 685 mmHg 46%
    18:00 +25°C° 0.1 mm 3 mps 685 mmHg 49%
    19:00 +25°C° 0.1 mm 3 mps 686 mmHg 52%
    20:00 +23°C° 0.5 mm 4 mps 686 mmHg 57%
    21:00 +22°C° 0.5 mm 5 mps 686 mmHg 63%
    22:00 +21°C° 0.5 mm 6 mps 686 mmHg 69%
    23:00 +20°C° 0 mm 6 mps 685 mmHg 72%
    Mostrar más